Garrett, IN

1:15 AM EST on February 20, 2017 (GMT -0500)
Auburn

Weather History for KGWB - August, 2013

Change the Weather History Date:

Saturday, August 17, 2013

  Actual Average (KFWA) Record (KFWA)
Temperature  
Mean Temperature 64 °F -  
Max Temperature 78 °F 82 °F 98 °F (1988)
Min Temperature 51 °F 61 °F 44 °F (1902)
Growing Degree Days 14 (Base 50)    
Moisture  
Dew Point 52 °F    
Average Humidity 67    
Maximum Humidity 94    
Minimum Humidity 34    
Precipitation  
Precipitation 0.00 in - - ()
Sea Level Pressure  
Sea Level Pressure 30.23 in    
Wind  
Wind Speed 2 mph (ENE)    
Max Wind Speed 10 mph    
Max Gust Speed -    
Visibility 9 miles    
Events      
Averages and records for this station are not official NWS values.
T = Trace of Precipitation, MM = Missing Value Source: NWS Daily Summary

Daily Weather History Graph

Daily Weather History Graph

Search for Another Location

Airport or City:

Trip Planner

Search our weather history database for the weather conditions in past years. The results will help you decide how hot, cold, wet, or windy it might be!

Date:

Astronomy

Aug. 17, 2013 Rise Set
Actual Time 6:51 AM EDT 8:36 PM EDT
Civil Twilight 6:22 AM EDT 9:05 PM EDT
Nautical Twilight 5:46 AM EDT 9:41 PM EDT
Astronomical Twilight 5:07 AM EDT 10:19 PM EDT
Moon 5:51 PM EDT (8/17) 2:52 AM EDT (8/17)
Length of Visible Light 14h 43m
Length of Day
13h 44m
Waxing Gibbous, 84% of the Moon is Illuminated
Aug 17
Waxing Gibbous
Aug 20
Full
Aug 28
Last Quarter
Sep 5
New
Sep 12
First Quarter

Hourly Weather History & Observations

Time (EDT) Temp. Dew Point Humidity Pressure Visibility Wind Dir Wind Speed Gust Speed Precip Events Conditions
12:15 AM 57.2 °F 53.6 °F 88% 30.22 in 10.0 mi Calm Calm - N/A   Clear
12:35 AM 57.2 °F 53.6 °F 88% 30.22 in 10.0 mi Calm Calm - N/A   Clear
12:55 AM 57.2 °F 53.6 °F 88% 30.23 in 10.0 mi Calm Calm - N/A   Clear
1:15 AM 55.4 °F 53.6 °F 94% 30.23 in 7.0 mi Calm Calm - N/A   Clear
1:35 AM 55.4 °F 53.6 °F 94% 30.23 in 10.0 mi Calm Calm - N/A   Clear
1:55 AM 55.4 °F 53.6 °F 94% 30.23 in 10.0 mi Calm Calm - N/A   Clear
2:15 AM 55.4 °F 51.8 °F 88% 30.23 in 7.0 mi Calm Calm - N/A   Clear
2:35 AM 55.4 °F 53.6 °F 94% 30.23 in 10.0 mi Calm Calm - N/A   Clear
2:55 AM 55.4 °F 51.8 °F 88% 30.22 in 10.0 mi Calm Calm - N/A   Clear
3:15 AM 55.4 °F 51.8 °F 88% 30.22 in 10.0 mi Calm Calm - N/A   Clear
3:35 AM 55.4 °F 53.6 °F 94% 30.22 in 10.0 mi Calm Calm - N/A   Clear
3:55 AM 55.4 °F 51.8 °F 88% 30.22 in 10.0 mi Calm Calm - N/A   Clear
4:15 AM 51.8 °F 50.0 °F 94% 30.23 in 7.0 mi Calm Calm - N/A   Clear
4:35 AM 51.8 °F 50.0 °F 94% 30.23 in 7.0 mi Calm Calm - N/A   Clear
4:55 AM 51.8 °F 50.0 °F 94% 30.23 in 7.0 mi Calm Calm - N/A   Clear
5:15 AM 53.6 °F 50.0 °F 88% 30.23 in 5.0 mi Calm Calm - N/A   Clear
5:35 AM 51.8 °F 50.0 °F 94% 30.24 in 4.0 mi Calm Calm - N/A   Clear
5:55 AM 51.8 °F 50.0 °F 94% 30.24 in 7.0 mi Calm Calm - N/A   Clear
6:15 AM 51.8 °F 50.0 °F 94% 30.24 in 10.0 mi Calm Calm - N/A   Clear
6:35 AM 53.6 °F 50.0 °F 88% 30.25 in 7.0 mi Calm Calm - N/A   Clear
6:55 AM 51.8 °F 50.0 °F 94% 30.25 in 5.0 mi Calm Calm - N/A   Clear
7:15 AM 51.8 °F 50.0 °F 94% 30.25 in 5.0 mi Calm Calm - N/A   Clear
7:35 AM 53.6 °F 51.8 °F 94% 30.25 in 5.0 mi Calm Calm - N/A   Clear
7:55 AM 53.6 °F 51.8 °F 94% 30.26 in 7.0 mi Calm Calm - N/A   Clear
8:15 AM 55.4 °F 51.8 °F 88% 30.27 in 7.0 mi Calm Calm - N/A   Clear
8:35 AM 55.4 °F 53.6 °F 94% 30.27 in 7.0 mi Calm Calm - N/A   Clear
8:55 AM 59.0 °F 53.6 °F 82% 30.27 in 10.0 mi Calm Calm - N/A   Clear
9:15 AM 62.6 °F 53.6 °F 72% 30.27 in 10.0 mi ENE 4.6 mph - N/A   Clear
9:35 AM 64.4 °F 53.6 °F 68% 30.27 in 10.0 mi ENE 5.8 mph - N/A   Clear
9:55 AM 68.0 °F 53.6 °F 60% 30.26 in 10.0 mi East 6.9 mph - N/A   Clear
10:15 AM 69.8 °F 53.6 °F 56% 30.27 in 10.0 mi East 6.9 mph - N/A   Clear
10:35 AM 71.6 °F 53.6 °F 53% 30.26 in 10.0 mi East 8.1 mph - N/A   Clear
10:55 AM 71.6 °F 55.4 °F 57% 30.27 in 10.0 mi ENE 6.9 mph - N/A   Clear
11:15 AM 71.6 °F 55.4 °F 57% 30.27 in 10.0 mi East 9.2 mph - N/A   Clear
11:35 AM 73.4 °F 53.6 °F 50% 30.27 in 10.0 mi East 9.2 mph - N/A   Clear
11:55 AM 73.4 °F 51.8 °F 47% 30.27 in 10.0 mi ENE 10.4 mph - N/A   Clear
12:15 PM 73.4 °F 51.8 °F 47% 30.26 in 10.0 mi East 8.1 mph - N/A   Clear
12:35 PM 75.2 °F 50.0 °F 41% 30.26 in 10.0 mi ENE 9.2 mph - N/A   Clear
12:55 PM 77.0 °F 51.8 °F 41% 30.26 in 10.0 mi East 8.1 mph - N/A   Clear
1:15 PM 75.2 °F 50.0 °F 41% 30.25 in 10.0 mi ESE 5.8 mph - N/A   Clear
1:35 PM 75.2 °F 50.0 °F 41% 30.25 in 10.0 mi East 8.1 mph - N/A   Clear
1:55 PM 77.0 °F 46.4 °F 34% 30.25 in 10.0 mi ENE 8.1 mph - N/A   Clear
2:15 PM 77.0 °F 48.2 °F 36% 30.24 in 10.0 mi East 9.2 mph - N/A   Clear
2:35 PM 77.0 °F 50.0 °F 39% 30.23 in 10.0 mi East 6.9 mph - N/A   Clear
2:55 PM 77.0 °F 50.0 °F 39% 30.23 in 10.0 mi ENE 6.9 mph - N/A   Scattered Clouds
3:15 PM 78.8 °F 50.0 °F 36% 30.23 in 10.0 mi ENE 9.2 mph - N/A   Clear
3:35 PM 77.0 °F 50.0 °F 39% 30.22 in 10.0 mi ESE 4.6 mph - N/A   Clear
3:55 PM 78.8 °F 50.0 °F 36% 30.22 in 10.0 mi East 8.1 mph - N/A   Clear
4:15 PM 77.0 °F 50.0 °F 39% 30.21 in 10.0 mi Calm Calm - N/A   Clear
4:35 PM 77.0 °F 50.0 °F 39% 30.20 in 10.0 mi ENE 5.8 mph - N/A   Clear
4:55 PM 77.0 °F 50.0 °F 39% 30.20 in 10.0 mi East 8.1 mph - N/A   Scattered Clouds
5:15 PM 78.8 °F 50.0 °F 36% 30.20 in 10.0 mi Calm Calm - N/A   Scattered Clouds
5:35 PM 78.8 °F 50.0 °F 36% 30.20 in 10.0 mi East 5.8 mph - N/A   Scattered Clouds
5:55 PM 78.8 °F 50.0 °F 36% 30.20 in 10.0 mi East 9.2 mph - N/A   Scattered Clouds
6:15 PM 78.8 °F 51.8 °F 39% 30.20 in 10.0 mi NE 8.1 mph - N/A   Scattered Clouds
6:35 PM 77.0 °F 51.8 °F 41% 30.20 in 10.0 mi ENE 5.8 mph - N/A   Clear
6:55 PM 77.0 °F 51.8 °F 41% 30.20 in 10.0 mi ENE 3.5 mph - N/A   Clear
7:15 PM 77.0 °F 50.0 °F 39% 30.20 in 10.0 mi East 4.6 mph - N/A   Clear
7:35 PM 73.4 °F 51.8 °F 47% 30.20 in 10.0 mi Calm Calm - N/A   Clear
7:55 PM 73.4 °F 51.8 °F 47% 30.20 in 10.0 mi Calm Calm - N/A   Clear
8:15 PM 69.8 °F 55.4 °F 60% 30.20 in 10.0 mi Calm Calm - N/A   Clear
8:35 PM 68.0 °F 53.6 °F 60% 30.20 in 10.0 mi Calm Calm - N/A   Clear
8:55 PM 66.2 °F 55.4 °F 68% 30.20 in 10.0 mi Calm Calm - N/A   Clear
9:15 PM 66.2 °F 55.4 °F 68% 30.20 in 10.0 mi Calm Calm - N/A   Clear
9:35 PM 64.4 °F 55.4 °F 73% 30.20 in 10.0 mi Calm Calm - N/A   Clear
9:55 PM 64.4 °F 55.4 °F 73% 30.21 in 10.0 mi ENE 3.5 mph - N/A   Clear
10:15 PM 62.6 °F 55.4 °F 77% 30.21 in 10.0 mi NE 3.5 mph - N/A   Clear
10:35 PM 62.6 °F 55.4 °F 77% 30.21 in 10.0 mi ENE 4.6 mph - N/A   Clear
10:55 PM 62.6 °F 55.4 °F 77% 30.21 in 10.0 mi ENE 4.6 mph - N/A   Clear
11:15 PM 60.8 °F 55.4 °F 82% 30.21 in 10.0 mi ENE 4.6 mph - N/A   Clear
11:35 PM 60.8 °F 55.4 °F 82% 30.20 in 10.0 mi ENE 4.6 mph - N/A   Clear
11:55 PM 60.8 °F 53.6 °F 77% 30.20 in 10.0 mi ENE 3.5 mph - N/A   Clear